Wind_Speed
33 32 32 32 31 30 31 31 30 30 30 28 26 25 23 22 20 19 17 16 14 14 13 13 12 12 11 12 12 12 12 12 12 11 12 12 12 11 11 11 10 10 9
30 31 32 31 31 31 31 31 31 29 29 29 28 27 25 23 22 22 20 18 17 16 15 15 14 13 13 13 13 13 13 13 12 12 12 13 12 12 11 11 10 10 9
28 29 30 30 30 31 31 31 32 30 29 28 29 28 27 25 23 23 22 21 19 18 17 16 15 15 15 14 14 14 14 14 13 13 13 13 13 13 12 11 11 11 10
25 26 27 29 29 30 30 31 32 31 29 29 30 30 29 27 25 24 24 23 21 20 19 18 17 17 16 16 15 15 15 15 14 14 14 14 14 14 13 12 12 11 11
22 23 25 26 28 28 30 31 31 31 31 30 29 31 31 30 27 26 26 25 23 22 21 20 19 18 18 18 17 16 16 16 16 15 15 15 15 15 14 14 13 12 11
19 21 23 25 27 28 29 31 31 31 31 31 30 30 31 31 30 28 28 27 26 24 23 23 22 20 20 20 19 18 17 17 17 16 16 16 16 16 15 14 14 13 13
17 18 21 24 25 26 28 29 30 31 30 30 31 30 30 30 31 30 30 29 28 27 26 26 25 23 22 22 21 20 19 19 18 17 17 16 16 16 16 15 15 14 14
14 16 18 21 23 25 27 28 29 30 31 31 30 31 32 31 31 31 31 31 31 30 29 28 27 27 25 24 24 23 22 21 20 19 18 18 17 17 17 16 16 16 16
13 14 16 18 21 24 25 27 27 28 30 32 31 31 32 32 32 31 32 31 32 32 31 31 30 29 28 27 26 26 25 24 23 22 21 20 20 19 19 18 18 17 17
12 13 14 16 18 21 23 25 27 28 29 31 32 32 32 33 33 32 33 33 33 33 32 33 32 31 30 30 28 28 28 27 25 25 24 23 22 22 21 21 20 19 19
12 12 12 14 16 18 20 23 25 27 29 30 31 32 33 33 33 33 34 34 33 34 34 34 34 33 32 32 31 30 30 28 27 27 26 25 24 24 23 23 22 21 21
12 11 11 11 12 14 17 19 22 24 27 29 30 31 33 34 35 35 35 34 33 34 35 35 35 35 35 35 34 32 32 31 30 29 28 28 27 26 26 25 24 24 23
12 11 10 10 10 11 13 15 18 21 24 26 28 29 32 33 34 34 35 36 35 33 35 35 36 36 36 36 36 36 34 33 32 31 31 31 30 29 28 28 27 26 25
12 11 10 9 8 9 10 12 15 17 20 23 25 27 30 31 33 34 35 35 36 35 35 36 37 38 38 38 38 38 37 35 34 34 32 32 32 31 30 30 29 29 28
14 12 10 9 8 8 8 10 11 14 17 20 22 25 27 30 31 32 34 35 36 35 35 37 38 39 39 40 39 38 37 37 36 36 35 34 34 34 33 32 31 31 31
15 13 12 10 9 8 6 7 8 10 13 16 19 22 25 28 29 31 33 34 36 35 35 36 38 38 39 39 39 39 38 37 37 38 37 36 35 35 34 34 34 34 33
17 15 13 12 10 9 8 7 7 9 10 13 16 20 22 24 27 29 31 33 35 36 36 36 38 39 40 39 38 39 39 39 39 38 38 37 36 36 36 36 36 36 35
19 18 16 14 12 11 10 8 8 9 9 10 12 15 19 21 24 26 28 31 32 34 36 36 36 37 39 39 39 38 39 39 39 40 39 39 39 38 38 38 37 37 36
21 19 18 16 14 13 12 10 9 9 9 10 11 13 15 18 21 23 25 28 30 32 34 36 36 36 37 38 39 39 38 39 39 40 40 40 40 40 39 39 39 38 37
21 21 20 18 16 15 14 13 12 10 9 9 9 10 12 15 17 20 22 24 27 29 31 33 35 36 36 37 38 38 37 37 37 38 39 39 39 39 39 39 40 39 39
20 20 20 19 18 17 16 15 14 13 11 9 8 7 9 11 13 16 18 21 23 26 28 30 32 33 34 35 36 36 37 37 36 36 36 37 39 39 38 38 39 40 39
19 20 19 19 18 18 17 16 16 15 14 11 9 7 7 7 8 11 13 16 19 22 24 26 28 30 31 33 34 36 36 36 36 36 36 36 38 38 38 38 39 40 40
18 19 19 19 19 18 17 17 16 16 15 13 11 9 7 6 7 8 10 12 15 18 21 23 26 28 29 31 33 34 35 35 36 36 35 35 36 37 38 38 38 38 38
18 18 18 18 18 18 18 18 18 17 16 15 13 11 9 7 6 7 8 10 12 15 18 21 24 26 28 29 30 31 33 33 34 35 35 35 35 35 36 36 36 37 37
17 17 17 17 18 18 18 18 18 18 17 16 15 13 10 8 7 6 7 8 10 12 15 18 21 24 26 28 30 31 32 32 33 34 34 34 33 34 34 34 35 35 36
17 17 17 17 17 18 18 17 17 17 17 17 16 15 12 9 7 7 7 7 9 10 12 14 17 20 22 25 27 28 30 31 31 32 32 32 32 32 33 33 33 35 36
Wind_Direction
252 251 249 248 249 250 248 246 244 241 240 240 238 237 238 236 236 236 236 235 232 227 225 222 220 219 218 212 208 205 204 200 198 197 198 197 196 194 194 197 199 199 200
252 250 249 249 249 248 247 245 243 242 239 237 236 236 236 236 236 235 234 233 231 228 225 223 223 222 221 215 211 210 209 208 206 204 204 202 203 201 201 204 206 207 208
251 249 247 246 246 245 245 244 241 241 240 238 236 235 235 234 236 235 233 232 230 228 225 223 224 223 220 217 216 214 214 213 212 210 208 207 207 208 209 211 213 214 217
251 249 246 245 245 245 243 242 241 241 241 239 237 236 235 234 235 235 234 232 229 228 226 225 224 223 221 220 220 220 219 218 218 216 215 215 213 214 216 219 220 222 226
252 248 246 245 245 244 241 241 241 241 240 239 238 237 235 234 233 232 233 232 229 227 226 226 225 225 224 223 223 223 223 222 221 222 220 219 218 219 222 224 225 228 230
255 250 246 245 245 244 242 241 240 239 238 237 236 236 234 234 233 230 229 230 229 228 228 227 227 227 226 225 225 225 225 224 225 226 224 223 222 224 226 227 229 231 235
262 256 251 247 245 246 245 242 239 238 236 235 234 235 234 234 232 232 230 229 229 229 228 228 227 227 227 227 226 226 226 226 226 226 227 226 225 226 228 231 234 237 239
270 264 258 252 247 245 243 241 239 237 235 235 234 235 235 235 235 233 230 228 227 228 229 229 228 228 229 229 229 228 227 228 228 228 229 230 230 230 233 235 238 240 243
282 275 265 257 251 247 245 242 240 238 236 237 235 234 236 236 236 234 230 228 227 227 229 230 230 230 230 230 231 231 229 230 231 231 232 233 235 236 237 239 241 243 246
294 283 274 265 257 251 249 245 242 239 237 237 236 235 234 234 233 233 230 230 229 228 228 230 230 231 230 230 232 232 231 231 232 233 234 235 237 239 242 243 244 247 249
307 296 285 273 262 255 251 249 244 241 239 237 236 236 234 234 232 233 232 231 229 227 227 228 229 231 231 232 232 232 232 232 234 235 235 237 239 241 243 244 246 249 251
321 308 298 286 272 262 256 251 246 244 241 238 236 236 235 235 234 233 232 231 230 230 228 228 229 230 231 233 232 233 233 233 235 236 237 239 240 242 243 246 248 250 252
333 323 312 301 287 270 260 254 249 249 246 241 239 239 237 236 235 233 234 232 232 232 230 228 228 229 231 233 234 234 234 235 235 236 239 240 241 242 244 247 249 251 253
349 341 328 316 301 285 271 261 256 254 250 245 242 242 240 238 237 236 236 235 236 235 233 231 231 230 230 232 234 234 233 234 235 237 239 241 241 242 245 247 250 252 253
3 359 353 344 327 306 287 270 262 257 252 249 245 243 241 239 239 237 236 236 236 234 233 233 232 230 230 231 232 232 232 233 236 237 240 242 241 242 245 248 250 252 253
11 8 4 359 353 341 319 292 277 267 259 253 248 244 241 239 239 237 237 237 236 235 233 233 233 232 232 232 232 232 234 235 237 238 240 242 242 243 245 247 250 251 253
16 14 10 3 358 352 341 322 303 288 275 262 253 247 243 241 241 241 239 238 237 235 234 234 234 232 232 232 233 234 235 235 237 238 239 240 243 245 247 248 250 251 253
18 17 15 12 8 2 355 342 324 310 295 279 263 253 247 244 241 240 239 238 237 235 234 233 233 233 233 233 232 234 235 235 236 238 240 242 244 246 247 248 249 251 253
20 20 19 19 16 10 4 356 341 326 311 296 282 267 257 249 245 243 241 239 238 236 234 234 234 234 234 234 234 234 237 237 239 240 240 242 244 246 247 248 249 251 253
21 21 21 21 20 17 14 9 4 354 339 317 296 281 267 256 250 247 245 242 239 238 236 235 235 235 235 235 235 235 237 238 240 242 240 242 244 246 248 249 250 251 253
19 20 21 21 21 19 18 15 12 6 357 346 328 304 282 267 256 249 246 243 240 238 236 235 234 235 236 237 237 236 237 237 240 241 242 243 245 246 247 249 250 251 253
15 16 17 18 18 18 18 16 12 10 7 1 352 335 309 285 266 256 249 245 241 238 236 235 235 234 235 236 237 237 238 240 240 241 243 245 245 246 249 250 250 250 251
9 11 12 14 16 16 16 15 13 11 9 6 0 351 337 305 281 268 259 252 245 240 238 236 235 235 236 236 237 237 238 240 242 243 244 246 248 248 249 249 251 249 250
4 6 7 8 9 10 10 11 13 11 10 8 4 356 347 329 300 282 270 262 252 246 242 239 236 236 236 236 236 237 238 240 242 243 245 247 247 248 247 247 248 249 250
357 359 1 3 4 5 5 6 8 10 11 11 9 5 357 350 333 307 283 273 264 256 249 244 240 237 237 238 238 239 239 241 243 245 247 248 249 248 249 248 248 249 249
347 349 352 354 356 358 359 359 1 3 5 7 7 7 5 0 350 332 309 290 281 271 263 253 245 241 240 240 239 240 240 241 242 244 246 247 247 248 250 250 250 250 251
Height
5822 5824 5826 5828 5830 5832 5835 5838 5840 5842 5845 5848 5851 5854 5856 5858 5860 5861 5863 5864 5866 5867 5868 5870 5872 5873 5874 5876 5877 5879 5880 5882 5883 5884 5886 5887 5889 5890 5892 5893 5894 5895 5896
5814 5816 5819 5821 5823 5826 5828 5831 5834 5836 5839 5842 5845 5848 5851 5853 5855 5857 5859 5861 5863 5864 5866 5868 5869 5871 5873 5874 5876 5878 5879 5880 5882 5883 5884 5886 5888 5889 5891 5892 5893 5894 5895
5807 5809 5811 5814 5816 5818 5821 5824 5827 5830 5833 5836 5839 5842 5845 5848 5850 5853 5855 5857 5859 5861 5863 5865 5867 5868 5870 5872 5874 5876 5877 5879 5880 5882 5883 5885 5886 5888 5889 5891 5892 5893 5894
5800 5802 5804 5806 5809 5811 5814 5817 5820 5823 5826 5829 5833 5836 5839 5842 5845 5848 5850 5853 5855 5858 5860 5862 5864 5866 5868 5870 5872 5874 5875 5877 5879 5880 5881 5883 5884 5886 5888 5889 5890 5892 5893
5793 5795 5797 5800 5802 5804 5807 5810 5812 5816 5819 5823 5826 5829 5832 5836 5839 5842 5845 5848 5851 5853 5856 5858 5861 5863 5865 5867 5869 5871 5873 5875 5876 5878 5879 5881 5882 5884 5886 5887 5889 5890 5891
5788 5789 5791 5793 5795 5797 5800 5803 5806 5809 5812 5815 5819 5822 5825 5829 5833 5836 5839 5842 5845 5848 5851 5854 5857 5859 5861 5864 5866 5868 5870 5872 5874 5875 5877 5878 5880 5882 5883 5885 5886 5887 5889
5783 5784 5785 5786 5788 5790 5793 5795 5799 5802 5805 5808 5812 5815 5819 5822 5826 5829 5833 5837 5840 5843 5846 5849 5852 5855 5857 5860 5862 5864 5867 5869 5871 5872 5874 5876 5877 5879 5881 5882 5884 5885 5886
5778 5779 5779 5780 5781 5783 5786 5788 5791 5794 5798 5801 5805 5808 5812 5816 5819 5823 5826 5830 5834 5837 5840 5844 5847 5850 5853 5855 5858 5860 5863 5865 5867 5869 5871 5873 5874 5876 5878 5879 5881 5882 5883
5774 5774 5774 5775 5775 5777 5779 5781 5784 5787 5790 5794 5797 5801 5805 5808 5812 5816 5819 5823 5827 5830 5834 5837 5841 5844 5847 5850 5853 5856 5858 5861 5863 5865 5867 5869 5871 5873 5874 5876 5877 5879 5880
5770 5769 5769 5769 5770 5771 5772 5774 5777 5780 5783 5786 5790 5793 5797 5801 5805 5809 5812 5816 5819 5823 5827 5831 5834 5838 5841 5845 5848 5850 5853 5856 5858 5861 5863 5865 5867 5869 5871 5872 5874 5875 5876
5766 5765 5765 5764 5764 5765 5766 5768 5770 5773 5776 5778 5782 5785 5789 5793 5797 5801 5805 5808 5812 5816 5820 5823 5827 5831 5835 5838 5841 5845 5847 5850 5853 5856 5858 5860 5862 5864 5866 5868 5869 5870 5872
5763 5762 5760 5760 5760 5760 5761 5762 5764 5766 5768 5771 5774 5778 5781 5785 5789 5793 5797 5800 5804 5808 5812 5816 5820 5824 5828 5831 5834 5838 5841 5844 5847 5850 5852 5854 5857 5859 5861 5862 5864 5865 5867
5760 5758 5757 5756 5756 5756 5756 5757 5758 5760 5762 5764 5767 5770 5773 5776 5780 5784 5788 5792 5796 5800 5804 5809 5812 5816 5820 5824 5827 5831 5834 5837 5840 5843 5846 5848 5851 5853 5855 5857 5858 5860 5861
5758 5756 5754 5753 5752 5752 5752 5752 5753 5754 5756 5758 5760 5763 5765 5768 5772 5776 5780 5784 5788 5792 5796 5800 5804 5808 5812 5816 5819 5822 5826 5830 5833 5836 5839 5841 5844 5846 5848 5850 5852 5854 5855
5758 5755 5753 5751 5750 5749 5749 5749 5749 5749 5750 5752 5753 5756 5758 5761 5764 5767 5771 5775 5779 5783 5787 5791 5795 5800 5803 5807 5811 5814 5818 5822 5825 5828 5831 5834 5836 5839 5841 5843 5845 5847 5848
5758 5755 5752 5750 5749 5747 5746 5745 5745 5745 5745 5746 5747 5749 5751 5753 5755 5758 5762 5766 5770 5774 5778 5782 5786 5790 5794 5799 5802 5806 5810 5813 5816 5819 5823 5826 5828 5831 5833 5835 5837 5839 5841
5759 5755 5752 5750 5748 5746 5745 5743 5743 5742 5741 5741 5742 5743 5744 5746 5748 5751 5754 5757 5761 5765 5769 5773 5776 5781 5785 5789 5794 5797 5801 5804 5808 5811 5814 5817 5820 5822 5825 5827 5829 5831 5832
5760 5756 5753 5750 5748 5746 5744 5742 5741 5739 5738 5737 5737 5738 5739 5740 5741 5743 5746 5749 5752 5756 5760 5764 5767 5771 5776 5780 5784 5788 5792 5795 5799 5802 5805 5808 5811 5813 5815 5818 5820 5822 5823
5762 5758 5754 5751 5748 5746 5744 5741 5739 5737 5736 5734 5733 5733 5733 5734 5735 5737 5739 5741 5744 5748 5751 5756 5759 5763 5767 5771 5775 5779 5783 5787 5790 5793 5795 5798 5801 5803 5806 5808 5810 5812 5814
5764 5760 5756 5753 5750 5747 5744 5741 5738 5736 5734 5732 5730 5729 5729 5729 5730 5731 5733 5735 5737 5740 5744 5748 5751 5755 5759 5762 5766 5770 5774 5778 5781 5783 5786 5789 5791 5794 5796 5799 5801 5803 5804
5766 5762 5758 5755 5751 5748 5745 5741 5738 5736 5733 5730 5728 5726 5726 5725 5725 5726 5727 5729 5731 5733 5736 5740 5743 5747 5750 5754 5758 5761 5765 5768 5771 5774 5776 5779 5782 5784 5786 5788 5790 5793 5794
5768 5764 5760 5756 5753 5749 5746 5742 5739 5736 5732 5729 5727 5725 5723 5722 5722 5722 5723 5724 5726 5728 5730 5733 5736 5739 5743 5746 5750 5753 5756 5759 5763 5766 5768 5770 5772 5774 5776 5779 5780 5782 5784
5769 5765 5762 5758 5754 5750 5747 5743 5740 5736 5733 5730 5727 5724 5722 5721 5720 5720 5720 5720 5721 5723 5725 5727 5730 5732 5735 5739 5742 5745 5747 5750 5754 5756 5758 5761 5763 5765 5767 5769 5770 5771 5773
5770 5766 5763 5759 5755 5752 5748 5744 5741 5737 5734 5731 5727 5724 5722 5720 5719 5718 5718 5718 5718 5719 5720 5722 5724 5726 5728 5730 5734 5737 5739 5742 5745 5747 5749 5752 5753 5755 5757 5759 5760 5762 5764
5770 5766 5763 5760 5756 5752 5749 5745 5742 5738 5735 5731 5728 5725 5722 5720 5718 5717 5716 5716 5715 5715 5715 5716 5718 5719 5721 5724 5727 5729 5732 5734 5737 5739 5741 5743 5744 5746 5747 5749 5751 5753 5754
5769 5766 5763 5759 5756 5753 5749 5746 5743 5739 5736 5732 5729 5725 5722 5720 5718 5716 5715 5714 5713 5713 5712 5712 5713 5714 5716 5718 5720 5722 5724 5727 5729 5731 5733 5735 5736 5737 5739 5740 5742 5743 5745